Location: ČR
(50.0000°N, 15.0000°E)
Time: 14:59:05
(UTC+00:00)

Explorer 7 - Pass Details

Date: 29 October 2021
Orbit: 483 x 675 km, 50.3° (Epoch: 27 November)

Event Time Altitude Azimuth Distance (km) Brightness Sun altitude
Rises 19:31:27 0° 249° (WSW) 2,617 10.8 -36.8°
Enters shadow 19:32:07 - 249° (WSW) 2,349 10.5 -36.9°
Reaches altitude 10° 19:33:36 10° 248° (WSW) 1,757 - -37.1°
Maximum altitude 19:37:35 74° 163° (SSE) 571 - -37.7°
Drops below altitude 10° 19:41:50 10° 79° (E) 1,875 - -38.3°
Sets 19:44:10 0° 78° (ENE) 2,811 - -38.6°
